Regional Weather Roundup
Issued by NWS Wakefield, VA

Home | Current Version | Previous Version | Text Only | Print | Product List | Glossary Off
Versions: 1 2 3 4 5 6 7 8 9 10 11 12 13 14 15 16 17 18 19 20 21 22 23 24 25 26 27 28 29 30 31 32 33 34 35 36 37 38 39 40 41 42 43 44 45 46 47 48 49 50
267 ASUS41 KAKQ 241715 RWRAKQ REGIONAL WEATHER ROUNDUP NATIONAL WEATHER SERVICE WAKEFIELD VA 100 PM EDT MON APR 24 2017 Note: "fair" indicates few or no clouds below 12,000 feet with no significant weather and/or obstructions to visibility. * = Denotes station may not report precipitation (e.g., rain,snow,etc.), thunder or fog. VAZ042-051-052>054-056-241800- NORTHERN VIRGINIA CITY SKY/WX TMP DP RH WIND PRES REMARKS WASH NATIONAL LGT RAIN 57 45 64 NE15 30.06F DULLES LGT RAIN 57 41 55 NE14 30.05F FORT BELVOIR LGT RAIN 54 46 73 NE5 30.04F QUANTICO LGT RAIN 54 50 86 NE9 30.05F FREDERICKSBRG* LGT RAIN 52 52 100 NE6 30.03S STAFFORD* HVY RAIN 53 52 98 N8 30.07F WARRENTON LGT RAIN 55 49 81 NE8 30.04F CULPEPER* LGT RAIN 54 52 93 NE5 30.06S MANASSAS* LGT RAIN 54 48 82 NE7 30.05F FOG LEESBURG* LGT RAIN 59 46 63 NE7 30.07F WINCHESTER CLOUDY 54 45 71 N7 30.06F FRONT ROYAL* CLOUDY 52 50 93 N5 30.05F LURAY* RAIN 52 50 93 NE9 30.05F $$ VAZ048-049-060>072-079>083-241800- CENTRAL AND SOUTH CENTRAL VIRGINIA CITY SKY/WX TMP DP RH WIND PRES REMARKS RICHMOND DRIZZLE 55 53 93 NE13 29.97F FOG CHESTERFIELD* CLOUDY 54 37 54 NE7 29.98F PETERSBURG* DRIZZLE 55 53 95 NE14G20 29.96F HANOVER LGT RAIN 54 51 90 VRB6 30.00F FOG TAPPAHANNOCK* LGT RAIN 55 55 100 NE10 30.01F QUINTON* CLOUDY 55 55 100 NE8 29.97F CHARLOTTSVILLE LGT RAIN 53 51 93 NE14 30.01F FOG GORDONSVILLE* CLOUDY 52 51 97 NE10G18 30.01F ORANGE* DRIZZLE 52 50 93 NE10 30.02F LOUISA* CLOUDY 55 54 94 NE9G16 29.99F FOG BUMPASS* CLOUDY 51 51 100 NE5 30.01F FARMVILLE* RAIN 52 52 100 N10G20 29.96F CREWE* CLOUDY 51 51 100 N9 29.95F FORT PICKETT* CLOUDY N/A N/A N/A NE12G18 29.94F CHASE CITY* CLOUDY 52 50 94 N7G16 29.93F CLARKSVILLE* CLOUDY 52 52 100 N7 29.92F SOUTH HILL* CLOUDY 54 54 100 N7G16 29.97F LAWRENCEVILLE* CLOUDY 55 54 97 NE9G18 29.91F EMPORIA* LGT RAIN 55 55 100 N8 29.93F $$ VAZ088>098-241800- SOUTHEAST VIRGINIA CITY SKY/WX TMP DP RH WIND PRES REMARKS NORFOLK CLOUDY 62 60 93 NE14 29.92F FOG VIRGINIA BEACH CLOUDY 62 59 90 NE9 29.92F NORFOLK NAVAL NOT AVBL WEST POINT* CLOUDY 57 56 96 NE10 29.99F SALUDA* CLOUDY 57 57 100 NE8G16 29.98F NEWPORT NEWS LGT RAIN 60 59 96 NE12 29.95F LANGLEY AFB LGT RAIN 61 61 100 NE16 29.94S FORT EUSTIS DRIZZLE 61 58 92 NE15 29.92F FOG WILLIAMSBURG* CLOUDY 61 61 100 NE3 29.96S HR EXEC AP* CLOUDY 64 59 82 NE8 29.91S FRANKLIN* CLOUDY 62 60 93 NE9 29.92F US460-WAKEFLD CLOUDY 59 59 100 VRB5 29.93F FOG $$ VAZ020-022-025-037-045-241800- WEST CENTRAL AND SOUTHWEST VIRGINIA CITY SKY/WX TMP DP RH WIND PRES REMARKS STAUNTON* RAIN 49 48 97 N7 30.05F WAYNESBORO* CLOUDY 49 49 100 N8 30.02F HOT SPRINGS VA SNOW 43 41 93 E13G21 29.97F VSB<1/4 LYNCHBURG LGT RAIN 50 48 93 NE18G28 29.97F FOG DANVILLE RAIN 50 50 100 NE13G21 29.93F FOG SOUTH BOSTON* CLOUDY 51 50 95 NE9 29.93F MARTINSVILLE RAIN 50 47 92 NE5G12 29.96F ROANOKE LGT RAIN 51 49 92 NE13 29.98F FOG BLACKSBURG DRIZZLE 50 48 95 E9 29.97F DUBLIN* CLOUDY 51 47 87 E10 29.95F FOG MARION* CLOUDY 50 49 96 NE13 29.93F FOG HILLSVILLE* LGT RAIN 48 48 100 CALM 29.90F RICHLANDS* CLOUDY 54 27 35 SE3 29.88F WISE* CLOUDY 55 54 94 NE3 29.88S ABINGDON* CLOUDY 59 53 79 E13 29.86S $$ MDZ021>025-VAZ099-100-241800- SOUTHERN MARYLAND AND THE DELMARVA PENINSULA CITY SKY/WX TMP DP RH WIND PRES REMARKS PATUXENT RIVER LGT RAIN 55 55 100 NE15 30.02F BAY BRIDGE APT CLOUDY 55 46 71 NE7 30.07F LEONARDTOWN CLOUDY 54 50 87 NE9 30.03F DOVER CLOUDY 58 56 95 E15 30.08F GEORGETOWN LGT RAIN 55 51 86 MISG 30.07F EASTON PTSUNNY 57 48 72 E13G20 30.10F CAMBRIDGE CLOUDY 57 50 77 NE16G26 30.03F SALISBURY LGT RAIN 54 52 93 E22 30.04S OCEAN CITY LGT RAIN 53 50 89 NE14G23 30.05F WALLOPS ISLAND LGT RAIN 54 54 100 NE25G33 30.01F ACCOMACK* CLOUDY 57 56 94 NE17G28 29.98F $$ NCZ012>017-030>032-241800- NORTH CENTRAL AND EASTERN NORTH CAROLINA CITY SKY/WX TMP DP RH WIND PRES REMARKS ROANOKE RAPIDS LGT RAIN 59 57 94 NE13 29.89F RALEIGH LGT RAIN 56 54 93 NE10 29.87F ELIZABETH CITY CLOUDY 68 67 96 NE14 29.88F AHOSKIE* RAIN 60 59 97 N8 29.89F EDENTON* LGT RAIN 69 66 92 NE6 29.87F CURRITUCK* CLOUDY 65 65 100 NE6 29.91F KILL DEVIL HLS CLOUDY 66 65 96 CALM 29.88S MANTEO CLOUDY 69 64 84 E8 29.88F CAPE HATTERAS CLOUDY 74 66 76 SE17 29.85F HAZE TARBORO* NOT AVBL GOLDSBORO LGT RAIN 64 64 100 CALM 29.79F FOG WASHINGTON LGT RAIN 68 66 95 E7 29.83F GREENVILLE LGT RAIN 68 68 100 E7 29.86F NEW BERN RAIN 66 66 100 SE6 29.83F FOG WILMINGTON RAIN 66 64 93 E12 29.75F $$ VAZ048-241800- ELSEWHERE CITY SKY/WX TMP DP RH WIND PRES REMARKS HARRISBURG PA CLOUDY 59 49 69 SE7 30.10F BALTIMORE CLOUDY 58 41 53 NE15 30.07F ANNAPOLIS CLOUDY 57 47 69 NE9 30.07F ANDREWS AFB DRIZZLE 54 46 76 NE10 30.04F PHILADELPHIA CLOUDY 58 43 57 E10 30.12F HENDERSON NC LGT RAIN 51 50 96 N9 29.90F GREENSBORO LGT RAIN 51 50 96 NE14 29.89F FOG ROCKY MOUNT LGT RAIN 61 61 100 NE12 29.85F $$ VAZ100-241800- MARINE STATION/POSITION TIME TEMP WIND PRES WAVE SWELL AIR SEA DIR/SP/G HT/PER HT/PER (UTC) (F) (DEG/KT/KT) (MB) (FT/S) (FT/S) CAPE MAY NJ 1648 53 55 70/ 14/ 23 1018.9R LEWES DE 1648 53 80/ 19/ 23 1018.8F 15NM E FENWICK I 1550 52 52 50/ 17/ 19 1018.5 5/11 3/11 OCEAN-CITY-INLET 1648 53 55 60/ 6/ 11 1018.3F WACHAPREAGUE VA 1648 55 58 30/ 25/ 28 1014.7F THOMAS POINT MD 1700 54 57 40/ 15/ 16 N/A GOOSES REEF MD 1650 55 60/ 16/ 19 1017.8F COVE POINT MD 1648 55 40/ 13/ 16 1017.4F SOLOMONS ISLAND 1648 56 61 30/ 8/ 13 N/A BISHOPS HEAD MD 1648 56 59 50/ 21/ 24 1016.3F PINEY POINT MD 1648 80/ 8/ 10 N/A POTOMAC MD 1650 56 60/ 16/ 25 1015.6R CAMBRIDGE MD 1648 57 63 50/ 18/ 23 1016.4F LEWISETTA VA 1648 56 61 70/ 13/ 16 1016.1F RAPPAHANNOCK LGT 1648 60/ 20/ 23 1015.2F STINGRAY PT 1650 57 70/ 17/ 21 1015.1F YORK RVR RNG VA 1648 60 60/ 19/ 24 1013.6F YORKTOWN VA 1648 60 63 60/ 19/ 22 1013.9F JAMESTOWN VA 1650 59 50/ 8/ 14 N/A DOMINION TERM VA 1648 61 60/ 12/ 17 1013.7S KIPTOPEKE VA 1648 60 70/ 12/ 19 N/A CHES BAY BRIDGE 1648 59 61 60/ 19/ 24 1012.9F CAPE HENRY VA 1648 59 50/ 14/ 16 N/A WILLOUBY STN VA 1648 60 60/ 17/ 19 1014.4S S CRANEY ISL VA 1648 61 70/ 16/ 18 1013.1S CAPE HENRY BUOY 1642 56 N/A 5/ 6 2/11 1ST LANDING BUOY 1650 60 1014.0F CAPE CHARLES BUO 1651 57 N/A 5/ 6 2/11 64NM E OF VA BCH 1650 59 54 90/ 10/ 10 1013.9F 5/ 8 5/ 8 DUCK PIER NC 1648 61 61 80/ 14/ 16 1011.5F 44100 DUCK FRF 1635 55 N/A 5/13 2/13 44056 DUCK FRF 1630 62 N/A 4/12 2/12 OREGON INLET NC 1642 66 59 90/ 7/ 11 1011.6F HATTERAS NC 1648 73 67 130/ 12/ 18 1010.3F DIAMOND SHLS NC 1650 73 79 180/ 21/ 29 1010.6F 8/11 5/11 CAPE LOOKOUT NC 1600 67 120/ 16/ 19 1009.9F $$

USA.gov is the U.S. government's official web portal to all federal, state and local government web resources and services.